sat.trackr.live / text

‹ back to catalog

NULINK-1

NORAD 69002 · 2026-100Y

PAYLOAD ACTIVE UNKNOWN

§ Identity

Operator
Country
SING
Launch date
2026-05-03
Launch site
AFWTR
Launch vehicle
Mass (kg)
RCS (m²)

External: N2YO · Heavens-Above · Gunter

§ Orbital elements

Epoch: 2026-09-20T03:56:34.892736Z

Period
96.46 min
Inclination
97.7221°
Eccentricity
0.0003019
Mean motion
14.92878993 rev/d
Perigee alt
586.9 km
Apogee alt
591.1 km
Semi-major
6,967.1 km
B*
4.6521e-5
RAAN
158.9762°
Arg perigee
57.1269°
Mean anomaly
303.0240°
Rev number
2,086

§ Raw data

NULINK-11 69002U 26100Y   26263.16429274  .00000426  00000+0  46521-4 0  99932 69002  97.7221 158.9762 0003019  57.1269 303.0240 14.92878993 20866

JSON: /api/v1/satellites/69002 · /tle

For live sub-satellite position, see the globe view (requires WebGL).

§ Visibility from observer

Set your observer location to see the next 7 days of passes ≥ 10°. The values pass through the URL so the page stays shareable.

No JS? Fill the form by hand. The geolocation button needs JavaScript.

§ Radio — SatNOGS DB

ModeDescriptionDownlinkUplink
UNKNOWN S-band telemetry 2.218 GHz

1 transmitter · refreshed weekly from db.satnogs.org